TimeCDT,TemperatureF,Dew PointF,Humidity,Sea Level PressureIn,VisibilityMPH,Wind Direction,Wind SpeedMPH,Gust SpeedMPH,PrecipitationIn,Events,Conditions,WindDirDegrees,DateUTC
12:15 AM,53.6,48.2,82,30.09,10.0,Calm,Calm,-,N/A,,Clear,0,2012-10-09 05:15:00
12:35 AM,53.6,48.2,82,30.09,10.0,Calm,Calm,-,N/A,,Clear,0,2012-10-09 05:35:00
12:55 AM,53.6,48.2,82,30.09,10.0,Calm,Calm,-,N/A,,Clear,0,2012-10-09 05:55:00
1:15 AM,53.6,48.2,82,30.09,10.0,Calm,Calm,-,N/A,,Clear,0,2012-10-09 06:15:00
1:35 AM,51.8,48.2,88,30.09,10.0,Calm,Calm,-,N/A,,Clear,0,2012-10-09 06:35:00
1:55 AM,51.8,50.0,94,30.09,10.0,Calm,Calm,-,N/A,,Mostly Cloudy,0,2012-10-09 06:55:00
2:15 AM,53.6,50.0,88,30.09,10.0,Calm,Calm,-,N/A,,Overcast,0,2012-10-09 07:15:00
2:35 AM,53.6,50.0,88,30.09,10.0,Calm,Calm,-,N/A,,Scattered Clouds,0,2012-10-09 07:35:00
2:55 AM,53.6,50.0,88,30.07,10.0,ESE,4.6,-,N/A,,Scattered Clouds,120,2012-10-09 07:55:00
3:15 AM,53.6,50.0,88,30.07,10.0,SE,3.5,-,N/A,,Overcast,130,2012-10-09 08:15:00
3:35 AM,55.4,51.8,88,30.06,10.0,ESE,3.5,-,N/A,,Overcast,110,2012-10-09 08:35:00
3:55 AM,55.4,51.8,88,30.06,10.0,Calm,Calm,-,N/A,,Overcast,0,2012-10-09 08:55:00
4:15 AM,57.2,51.8,82,30.06,10.0,SE,3.5,-,N/A,,Overcast,130,2012-10-09 09:15:00
4:35 AM,57.2,51.8,82,30.06,10.0,SE,3.5,-,N/A,,Overcast,130,2012-10-09 09:35:00
4:55 AM,57.2,51.8,82,30.06,10.0,SE,3.5,-,N/A,,Overcast,140,2012-10-09 09:55:00
5:15 AM,57.2,51.8,82,30.06,10.0,SE,3.5,-,N/A,,Overcast,130,2012-10-09 10:15:00
5:35 AM,57.2,51.8,82,30.06,10.0,SE,5.8,-,N/A,,Overcast,140,2012-10-09 10:35:00
5:55 AM,57.2,51.8,82,30.06,10.0,SE,4.6,-,N/A,,Overcast,140,2012-10-09 10:55:00
6:15 AM,59.0,51.8,77,30.06,10.0,SE,4.6,-,N/A,,Overcast,140,2012-10-09 11:15:00
6:35 AM,59.0,51.8,77,30.06,10.0,SE,3.5,-,N/A,,Overcast,130,2012-10-09 11:35:00
6:55 AM,57.2,51.8,82,30.06,10.0,Calm,Calm,-,N/A,,Overcast,0,2012-10-09 11:55:00
7:15 AM,57.2,53.6,88,30.07,10.0,Calm,Calm,-,N/A,,Overcast,0,2012-10-09 12:15:00
7:55 AM,59.0,53.6,82,30.07,10.0,SE,4.6,-,N/A,,Overcast,130,2012-10-09 12:55:00
8:15 AM,59.0,53.6,82,30.07,10.0,SE,4.6,-,N/A,,Overcast,140,2012-10-09 13:15:00
8:35 AM,59.0,53.6,82,30.08,10.0,SSE,5.8,-,N/A,,Overcast,150,2012-10-09 13:35:00
8:55 AM,59.0,53.6,82,30.09,10.0,SE,5.8,-,N/A,,Overcast,140,2012-10-09 13:55:00
9:35 AM,60.8,53.6,77,30.10,10.0,SE,6.9,-,N/A,,Overcast,140,2012-10-09 14:35:00
9:55 AM,60.8,53.6,77,30.09,10.0,SE,6.9,-,N/A,,Overcast,140,2012-10-09 14:55:00
10:15 AM,62.6,53.6,72,30.09,10.0,SE,8.1,-,N/A,,Overcast,140,2012-10-09 15:15:00
10:35 AM,62.6,53.6,72,30.09,10.0,SSE,6.9,-,N/A,,Overcast,160,2012-10-09 15:35:00
10:55 AM,64.4,53.6,68,30.09,10.0,SSE,8.1,-,N/A,,Overcast,150,2012-10-09 15:55:00
11:15 AM,64.4,55.4,73,30.08,10.0,SSE,9.2,-,N/A,,Overcast,150,2012-10-09 16:15:00
11:35 AM,68.0,55.4,64,30.07,10.0,South,11.5,-,N/A,,Overcast,170,2012-10-09 16:35:00
11:55 AM,68.0,57.2,68,30.06,10.0,SSE,9.2,-,N/A,,Overcast,150,2012-10-09 16:55:00
12:15 PM,69.8,57.2,64,30.05,10.0,South,10.4,16.1,N/A,,Overcast,170,2012-10-09 17:15:00
12:35 PM,71.6,59.0,64,30.04,10.0,SSE,15.0,19.6,N/A,,Overcast,150,2012-10-09 17:35:00
12:55 PM,71.6,60.8,69,30.03,10.0,South,15.0,-,N/A,,Mostly Cloudy,170,2012-10-09 17:55:00
1:15 PM,73.4,60.8,65,30.02,10.0,SSE,11.5,17.3,N/A,,Overcast,150,2012-10-09 18:15:00
1:35 PM,75.2,60.8,61,30.01,10.0,South,13.8,-,N/A,,Overcast,180,2012-10-09 18:35:00
1:55 PM,73.4,60.8,65,29.99,10.0,South,13.8,23.0,N/A,,Overcast,190,2012-10-09 18:55:00
2:15 PM,77.0,62.6,61,29.98,10.0,South,10.4,-,N/A,,Overcast,170,2012-10-09 19:15:00
2:35 PM,78.8,62.6,57,29.96,10.0,SSE,9.2,16.1,N/A,,Mostly Cloudy,160,2012-10-09 19:35:00
2:55 PM,78.8,62.6,57,29.96,10.0,South,12.7,20.7,N/A,,Mostly Cloudy,180,2012-10-09 19:55:00
3:15 PM,80.6,62.6,54,29.96,10.0,South,12.7,-,N/A,,Mostly Cloudy,190,2012-10-09 20:15:00
3:35 PM,78.8,62.6,57,29.94,10.0,SSE,10.4,-,N/A,,Mostly Cloudy,160,2012-10-09 20:35:00
3:55 PM,78.8,62.6,57,29.94,10.0,South,12.7,-,N/A,,Mostly Cloudy,180,2012-10-09 20:55:00
4:15 PM,80.6,62.6,54,29.93,10.0,SSW,12.7,-,N/A,,Mostly Cloudy,200,2012-10-09 21:15:00
4:35 PM,80.6,62.6,54,29.93,10.0,South,13.8,-,N/A,,Mostly Cloudy,180,2012-10-09 21:35:00
4:55 PM,80.6,60.8,51,29.92,10.0,South,10.4,18.4,N/A,,Scattered Clouds,190,2012-10-09 21:55:00
5:15 PM,80.6,60.8,51,29.92,10.0,SSW,12.7,20.7,N/A,,Scattered Clouds,200,2012-10-09 22:15:00
5:35 PM,80.6,62.6,54,29.91,10.0,South,13.8,-,N/A,,Scattered Clouds,180,2012-10-09 22:35:00
5:55 PM,80.6,62.6,54,29.91,10.0,South,10.4,16.1,N/A,,Clear,190,2012-10-09 22:55:00
6:15 PM,80.6,62.6,54,29.91,10.0,South,9.2,-,N/A,,Clear,190,2012-10-09 23:15:00
6:35 PM,78.8,62.6,57,29.92,10.0,South,8.1,-,N/A,,Clear,190,2012-10-09 23:35:00
6:55 PM,77.0,62.6,61,29.91,10.0,South,5.8,-,N/A,,Clear,190,2012-10-09 23:55:00
7:15 PM,73.4,62.6,69,29.91,10.0,South,5.8,-,N/A,,Clear,170,2012-10-10 00:15:00
7:35 PM,73.4,62.6,69,29.91,10.0,SSE,4.6,-,N/A,,Clear,160,2012-10-10 00:35:00
7:55 PM,71.6,62.6,73,29.92,10.0,SSE,5.8,-,N/A,,Clear,150,2012-10-10 00:55:00
8:15 PM,73.4,62.6,69,29.93,10.0,SSE,8.1,-,N/A,,Clear,150,2012-10-10 01:15:00
8:35 PM,73.4,64.4,73,29.94,10.0,SSE,5.8,-,N/A,,Clear,160,2012-10-10 01:35:00
8:55 PM,71.6,64.4,78,29.95,10.0,SSE,5.8,-,N/A,,Clear,160,2012-10-10 01:55:00
9:15 PM,71.6,64.4,78,29.96,10.0,SSE,5.8,-,N/A,,Clear,150,2012-10-10 02:15:00
9:35 PM,71.6,64.4,78,29.97,10.0,SSE,4.6,-,N/A,,Clear,150,2012-10-10 02:35:00
9:55 PM,71.6,64.4,78,29.98,10.0,SSE,9.2,-,N/A,,Clear,160,2012-10-10 02:55:00
10:15 PM,71.6,64.4,78,29.98,10.0,SSE,10.4,-,N/A,,Clear,160,2012-10-10 03:15:00
10:35 PM,71.6,64.4,78,29.99,10.0,SSE,8.1,-,N/A,,Clear,160,2012-10-10 03:35:00
10:55 PM,71.6,64.4,78,29.99,10.0,SSE,9.2,-,N/A,,Clear,160,2012-10-10 03:55:00
11:15 PM,69.8,64.4,83,29.99,10.0,South,10.4,-,N/A,,Clear,170,2012-10-10 04:15:00
11:35 PM,69.8,64.4,83,30.00,10.0,SSE,8.1,-,N/A,,Clear,160,2012-10-10 04:35:00
11:55 PM,69.8,64.4,83,30.00,10.0,SSE,6.9,-,N/A,,Clear,150,2012-10-10 04:55:00